sat.trackr.live / text

‹ back to catalog

STARLINK-11328 [DTC]

NORAD 61880 · 2024-204G

PAYLOAD ACTIVE UNKNOWN

§ Identity

Operator
Country
US
Launch date
2024-11-09
Launch site
AFWTR
Launch vehicle
Mass (kg)
RCS (m²)

Purposes: comms

External: N2YO · Heavens-Above · Gunter

§ Orbital elements

Epoch: 2026-05-24T20:05:11.642784Z

Period
91.74 min
Inclination
53.1588°
Eccentricity
0.0000977
Mean motion
15.69703474 rev/d
Perigee alt
359.1 km
Apogee alt
360.4 km
Semi-major
6,737.9 km
B*
2.5318e-7
RAAN
340.9426°
Arg perigee
65.1221°
Mean anomaly
294.9898°
Rev number
8,887

§ Raw data

STARLINK-11328 [DTC]1 61880U 24204G   26144.83694031 -.00000558  00000+0  25318-6 0  99992 61880  53.1588 340.9426 0000977  65.1221 294.9898 15.69703474 88879

JSON: /api/v1/satellites/61880 · /tle

For live sub-satellite position, see the globe view (requires WebGL).

§ Visibility from observer

Set your observer location to see the next 7 days of passes ≥ 10°. The values pass through the URL so the page stays shareable.

No JS? Fill the form by hand. The geolocation button needs JavaScript.